Location: �chenoz-la-M�line
(47.6009°N, 6.1354°E)
Time: 10:41:24
(UTC+00:00)

FENGYUN 3A - Pass Details

Date: 27 January 2021
Orbit: 824 x 835 km, 98.4° (Epoch: 02 March)

Event Time Altitude Azimuth Distance (km) Brightness Sun altitude
Rises 03:58:22 0° 15° (NNE) 3,378 7.1 -31.9°
Reaches altitude 10° 04:00:44 10° 17° (NNE) 2,441 6.3 -31.5°
Enters shadow 04:04:54 53° 34° (NNE) 1,012 4.2 -30.8°
